User: anonymous   Login
Location: Follega
(52.8850°N, 5.7362°E)
Time: 15:54:45
(UTC+00:00)
Language:

Okean 2 - Orbit

View from above orbital plane
View from above orbital plane
View from above satellite
View from above satellite

Ground track
Ground track

The orbit data is extracted from the following two-line orbital elements,

1 20510U 90018A   20225.54581295  .00000317  00000-0  23566-4 0  9993
2 20510  82.5177 144.4074 0013502  52.5874 120.2383 14.99497890654101
Epoch (UTC): 12 August 2020 13:05:58
Eccentricity: 0.0013502
inclination: 82.5177°
perigee height: 559 km
apogee height: 578 km
right ascension of ascending node: 144.4074°
argument of perigee: 52.5874°
revolutions per day: 14.99497890
mean anomaly at epoch: 120.2383°
orbit number at epoch: 65410

The dashed part of the orbit path shows where the satellite is in the earth's shadow,  

DLR